This is the latest recevied weather packets stored in our database for station/object YG1CIC-13. If no packets are shown the sender has not sent any weather packets the latest 10 day(s).
| Time | Temp. | Humidity | Pressure | Rain* | Wind** | Luminosity | Snow |
|---|---|---|---|---|---|---|---|
| 1777553241 | 27.22° C | 96% | - | 0 mm | - | - | - |
| 1777552641 | 26.67° C | 94% | - | 0 mm | - | - | - |
| 1777552040 | 27.22° C | 95% | - | 0 mm | - | - | - |
| 1777551439 | 27.22° C | 90% | - | 0 mm | - | - | - |
| 1777550839 | 27.22° C | 92% | - | 0 mm | - | - | - |
| 1777550238 | 26.67° C | 90% | - | 0 mm | - | - | - |
| 1777549637 | 26.67° C | 90% | - | 0 mm | - | - | - |
| 1777549037 | 26.11° C | 90% | - | 0 mm | - | - | - |
| 1777548436 | 26.67° C | 88% | - | 0 mm | - | - | - |
| 1777547836 | 27.78° C | 80% | - | 0 mm | - | - | - |
| 1777547235 | 28.33° C | 80% | - | 0 mm | - | - | - |
| 1777546634 | 28.89° C | 85% | - | 0 mm | - | - | - |
| 1777546034 | 30° C | 81% | - | 0 mm | - | - | - |
| 1777545433 | 31.11° C | 80% | - | 0 mm | - | - | - |
| 1777544833 | 31.67° C | 80% | - | 0 mm | - | - | - |
| 1777544232 | 31.67° C | 80% | - | 0 mm | - | - | - |
| 1777543632 | 32.22° C | 77% | - | 0 mm | - | - | - |
| 1777543031 | 32.78° C | 74% | - | 0 mm | - | - | - |
| 1777542430 | 32.78° C | 75% | - | 0 mm | - | - | - |
| 1777541830 | 33.33° C | 76% | - | 0 mm | - | - | - |
| 1777541229 | 32.78° C | 76% | - | 0 mm | - | - | - |
| 1777540628 | 32.78° C | 77% | - | 0 mm | - | - | - |
| 1777540028 | 32.78° C | 75% | - | 0 mm | - | - | - |
| 1777539427 | 32.78° C | 75% | - | 0 mm | - | - | - |
| 1777538826 | 33.33° C | 75% | - | 0 mm | - | - | - |
* Rain latest hour (hover to see other rain measurements)
** Current wind speed in m/s (hover to see current wind gust speed)